HAZ2104 ZWSH-ZSHC

Flight info

Callsign HAZ2104
Flight time N/A
Altitude 37100
Route PUBUR W176 KQS W186 SADAN Y1 OMBON H59 POLUS W280 NSH W281 SUDGO W4 UPSIK W282 NUGSA H11 KIKIV X268 FYG B208 HFE R343 UPLEL W95 SAPIN A470 IGRAT
Aircraft A346/H-SDE2E3FGHIJ3J4J5M1RWXY/LB1D1

Departure

Time 2026-05-08 08:54
Airport Kashgar Laining International Airport (ZWSH)

Arrival

Time N/A
Airport Hangzhou Xiaoshan International Airport (ZSHC)
Time Latitude Longitude Altitude Speed Heading
2026-05-08 08:28 39.53794 76.01437 4531 ft 0 kts 176°
2026-05-08 08:43 39.53805 76.01436 4527 ft 4 kts 174°
2026-05-08 08:43 39.53832 76.01432 4531 ft 4 kts 175°
2026-05-08 08:44 39.53854 76.01430 4527 ft 4 kts 186°
2026-05-08 08:44 39.53874 76.01438 4527 ft 4 kts 219°
2026-05-08 08:44 39.53882 76.01454 4531 ft 4 kts 262°
2026-05-08 08:44 39.53881 76.01486 4526 ft 4 kts 276°
2026-05-08 08:45 39.53879 76.01520 4526 ft 3 kts 268°
2026-05-08 08:45 39.53880 76.01525 4531 ft 0 kts 266°
2026-05-08 08:48 39.53879 76.01518 4528 ft 2 kts 266°
2026-05-08 08:48 39.53878 76.01495 4527 ft 3 kts 266°
2026-05-08 08:48 39.53880 76.01460 4531 ft 5 kts 285°
2026-05-08 08:49 39.53898 76.01430 4530 ft 5 kts 335°
2026-05-08 08:49 39.53930 76.01424 4526 ft 5 kts 353°
2026-05-08 08:49 39.53985 76.01416 4528 ft 10 kts 352°
2026-05-08 08:49 39.54026 76.01357 4527 ft 10 kts 273°
2026-05-08 08:50 39.54024 76.01260 4528 ft 11 kts 261°
2026-05-08 08:50 39.54012 76.01155 4530 ft 12 kts 268°
2026-05-08 08:50 39.54007 76.01042 4527 ft 13 kts 266°
2026-05-08 08:50 39.54002 76.00919 4527 ft 14 kts 266°
2026-05-08 08:51 39.53995 76.00794 4531 ft 14 kts 266°
2026-05-08 08:51 39.53988 76.00663 4530 ft 15 kts 265°
2026-05-08 08:51 39.53979 76.00524 4527 ft 15 kts 265°
2026-05-08 08:51 39.53973 76.00384 4530 ft 16 kts 267°
2026-05-08 08:52 39.53964 76.00240 4530 ft 14 kts 265°
2026-05-08 08:52 39.53992 76.00181 4527 ft 8 kts 334°
2026-05-08 08:52 39.54053 76.00162 4527 ft 9 kts 354°
2026-05-08 08:52 39.54116 76.00176 4531 ft 9 kts 33°
2026-05-08 08:53 39.54144 76.00250 4526 ft 10 kts 81°
2026-05-08 08:53 39.54152 76.00361 4529 ft 21 kts 85°
2026-05-08 08:53 39.54179 76.00865 4529 ft 90 kts 86°
2026-05-08 08:53 39.54238 76.01958 4532 ft 149 kts 86°
2026-05-08 08:54 39.54331 76.03530 4589 ft 190 kts 87°
2026-05-08 08:54 39.54445 76.05293 5072 ft 201 kts 87°
2026-05-08 08:54 39.54553 76.07124 5722 ft 205 kts 89°
2026-05-08 08:54 39.54630 76.08968 6477 ft 206 kts 89°
2026-05-08 08:55 39.54775 76.10878 6968 ft 222 kts 76°
2026-05-08 08:55 39.55448 76.12740 7355 ft 235 kts 59°
2026-05-08 08:55 39.56385 76.14548 7616 ft 247 kts 56°
2026-05-08 08:55 39.57406 76.16422 7859 ft 261 kts 55°
2026-05-08 08:56 39.58480 76.18404 8085 ft 276 kts 56°
2026-05-08 08:56 39.59602 76.20505 8366 ft 290 kts 56°
2026-05-08 08:56 39.60754 76.22687 8713 ft 301 kts 56°
2026-05-08 08:56 39.61955 76.24978 9254 ft 305 kts 56°
2026-05-08 08:57 39.63151 76.27266 9840 ft 307 kts 56°
2026-05-08 08:57 39.64350 76.29567 10459 ft 308 kts 56°
2026-05-08 08:57 39.65549 76.31871 11130 ft 309 kts 56°
2026-05-08 08:57 39.66740 76.34161 11795 ft 310 kts 56°
2026-05-08 08:58 39.67948 76.36486 12516 ft 311 kts 55°
2026-05-08 08:58 39.69163 76.38825 13260 ft 313 kts 55°
2026-05-08 08:58 39.70333 76.41218 13984 ft 315 kts 59°
2026-05-08 08:58 39.71435 76.43741 14454 ft 328 kts 60°
2026-05-08 08:59 39.72580 76.46412 14760 ft 345 kts 60°
2026-05-08 08:59 39.73775 76.49212 15073 ft 362 kts 60°
2026-05-08 08:59 39.75019 76.52127 15369 ft 378 kts 60°
2026-05-08 08:59 39.76328 76.55192 15658 ft 394 kts 60°
2026-05-08 09:00 39.77703 76.58412 15998 ft 408 kts 60°
2026-05-08 09:00 39.79069 76.61618 16584 ft 413 kts 60°
2026-05-08 09:00 39.80467 76.64899 17319 ft 415 kts 60°
2026-05-08 09:00 39.81869 76.68191 18005 ft 417 kts 60°
2026-05-08 09:01 39.83279 76.71508 18667 ft 420 kts 60°
2026-05-08 09:01 39.84705 76.74862 19292 ft 424 kts 60°
2026-05-08 09:01 39.86139 76.78239 19901 ft 427 kts 60°
2026-05-08 09:01 39.87582 76.81638 20483 ft 431 kts 60°
2026-05-08 09:02 39.89037 76.85071 21054 ft 435 kts 60°
2026-05-08 09:02 39.90513 76.88558 21633 ft 438 kts 59°
2026-05-08 09:02 39.91992 76.92057 22190 ft 441 kts 60°
2026-05-08 09:02 39.93477 76.95573 22733 ft 445 kts 60°
2026-05-08 09:03 39.94973 76.99121 23255 ft 448 kts 60°
2026-05-08 09:03 39.96482 77.02703 23781 ft 451 kts 60°
2026-05-08 09:03 39.97996 77.06299 24287 ft 454 kts 60°
2026-05-08 09:03 39.99522 77.09929 24788 ft 457 kts 60°
2026-05-08 09:04 40.01057 77.13589 25258 ft 460 kts 60°
2026-05-08 09:04 40.02600 77.17268 25730 ft 463 kts 60°
2026-05-08 09:04 40.04150 77.20970 26182 ft 466 kts 60°
2026-05-08 09:04 40.05706 77.24687 26628 ft 468 kts 60°
2026-05-08 09:05 40.07275 77.28443 27063 ft 471 kts 60°
2026-05-08 09:05 40.08846 77.32211 27494 ft 474 kts 60°
2026-05-08 09:05 40.10429 77.36010 27917 ft 477 kts 60°
2026-05-08 09:05 40.11481 77.38536 28187 ft 478 kts 60°
2026-05-08 09:06 40.13614 77.43666 28756 ft 481 kts 60°
2026-05-08 09:06 40.15210 77.47511 29300 ft 479 kts 60°
2026-05-08 09:06 40.16797 77.51340 29915 ft 477 kts 60°
2026-05-08 09:06 40.18371 77.55145 30497 ft 474 kts 60°
2026-05-08 09:07 40.19939 77.58935 31021 ft 473 kts 60°
2026-05-08 09:07 40.21516 77.62754 31492 ft 472 kts 59°
2026-05-08 09:07 40.23077 77.66539 31960 ft 472 kts 59°
2026-05-08 09:07 40.24107 77.69037 32277 ft 471 kts 59°
2026-05-08 09:08 40.25662 77.72813 32752 ft 470 kts 60°
2026-05-08 09:08 40.27214 77.76584 33217 ft 469 kts 60°
2026-05-08 09:08 40.29281 77.81621 33813 ft 468 kts 59°
2026-05-08 09:08 40.30306 77.84120 34099 ft 467 kts 59°
2026-05-08 09:09 40.31840 77.87864 34521 ft 466 kts 59°
2026-05-08 09:09 40.33382 77.91635 34945 ft 466 kts 59°
2026-05-08 09:09 40.34923 77.95405 35331 ft 465 kts 59°
2026-05-08 09:09 40.36454 77.99157 35670 ft 465 kts 59°
2026-05-08 09:10 40.37983 78.02906 35934 ft 467 kts 59°
2026-05-08 09:10 40.39533 78.06710 36180 ft 468 kts 59°
2026-05-08 09:10 40.41070 78.10490 36439 ft 469 kts 59°
2026-05-08 09:10 40.42612 78.14286 36697 ft 470 kts 59°
2026-05-08 09:11 40.44153 78.18088 36972 ft 470 kts 59°
2026-05-08 09:11 40.45685 78.21872 37242 ft 468 kts 59°
2026-05-08 09:11 40.48729 78.29402 37257 ft 466 kts 59°
2026-05-08 09:12 40.51795 78.37003 37258 ft 466 kts 59°
2026-05-08 09:12 40.54827 78.44538 37245 ft 466 kts 59°
2026-05-08 09:13 40.57861 78.52097 37246 ft 467 kts 60°
2026-05-08 09:13 40.60892 78.59667 37252 ft 467 kts 60°
2026-05-08 09:14 40.63909 78.67226 37250 ft 467 kts 60°
2026-05-08 09:14 40.66767 78.74405 37251 ft 467 kts 60°
2026-05-08 09:15 40.69781 78.81987 37251 ft 467 kts 60°
2026-05-08 09:15 40.72789 78.89584 37250 ft 467 kts 60°
2026-05-08 09:16 40.75787 78.97205 37252 ft 467 kts 60°
2026-05-08 09:16 40.78768 79.04842 37251 ft 467 kts 60°
2026-05-08 09:17 40.81757 79.12520 37253 ft 467 kts 60°
2026-05-08 09:17 40.84722 79.20154 37249 ft 467 kts 60°
2026-05-08 09:18 40.87654 79.27855 37248 ft 468 kts 62°
2026-05-08 09:18 40.90536 79.35613 37248 ft 468 kts 62°
2026-05-08 09:19 40.93408 79.43356 37252 ft 468 kts 62°
2026-05-08 09:19 40.96271 79.51082 37251 ft 468 kts 62°
2026-05-08 09:20 40.99136 79.58829 37250 ft 468 kts 62°
2026-05-08 09:20 41.01993 79.66570 37251 ft 468 kts 62°
2026-05-08 09:21 41.04850 79.74334 37248 ft 468 kts 62°
2026-05-08 09:23 41.14798 80.01532 37250 ft 468 kts 62°
2026-05-08 09:23 41.17632 80.09325 37249 ft 468 kts 62°
2026-05-08 09:24 41.20459 80.17125 37251 ft 468 kts 62°
2026-05-08 09:24 41.22966 80.25147 37248 ft 471 kts 72°
2026-05-08 09:25 41.24121 80.33737 37251 ft 474 kts 85°
2026-05-08 09:25 41.23779 80.42565 37251 ft 478 kts 98°
2026-05-08 09:26 41.22150 80.51127 37253 ft 479 kts 104°
2026-05-08 09:26 41.20258 80.59721 37249 ft 479 kts 105°